Hourly Data Report for November 06, 2017

VICTORIA UNIVERSITY CS
BRITISH COLUMBIA

48°27'25.200" N
123°18'16.600" W
60.10 m
1018598
71783
WYJ

Download Data

Hourly Data (November 2017)
Hourly Data Report for November 6, 2017
TIME
LST
Temp Definition
°C
Dew Point Definition
°C
Rel Hum Definition
%
Precip. Amount Definition
mm

Wind Dir Definition
10's deg

Wind Spd Definition
km/h
Visibility Definition
km
Stn Press Definition
kPa
Hmdx Definition


Wind Chill Definition


Weather Definition


00:00 3.0 -8.2 43 0.0 3 10   101.29     LegendNANA
01:00 2.8 -7.8 45 0.0 2 13   101.36     LegendNANA
02:00 2.8 -7.2 48 0.0 3 12   101.42     LegendNANA
03:00 2.7 -6.8 50 0.0 3 9   101.44     LegendNANA
04:00 2.5 -6.7 51 0.0 3 8   101.49     LegendNANA
05:00 2.7 -6.7 50 0.0 3 12   101.56     LegendNANA
06:00 2.2 -5.6 56 0.0 2 3   101.61     LegendNANA
07:00 2.9 -4.5 58 0.0 2 3   101.66     LegendNANA
08:00 3.4 -4.1 58 0.0 3 2   101.70     LegendNANA
09:00 3.8 -3.7 58 0.0 3 4   101.76     LegendNANA
10:00 5.9 -2.6 54 0.0 10 3   101.79     LegendNANA
11:00 6.3 -2.3 54 0.0 14 4   101.87     LegendNANA
12:00 6.4 -2.4 53 0.0 5 4   101.86     LegendNANA
13:00 6.4 -1.8 56 0.0 1 6   101.85     LegendNANA
14:00 6.1 -2.5 54 0.0 7 6   101.81     LegendNANA
15:00 6.3 -2.0 56 0.0 7 3   101.83     LegendNANA
16:00 5.2 -2.2 59 0.0 0 1   101.83     LegendNANA
17:00 1.3 -1.8 80 0.0 29 2   101.84     LegendNANA
18:00 0.3 -1.8 86 0.0 35 4   101.84     LegendNANA
19:00 1.7 -1.9 77 0.0 36 4   101.83     LegendNANA
20:00 3.5 -1.4 70 0.0 1 5   101.82     LegendNANA
21:00 3.7 -0.7 73 0.0 1 6   101.82     LegendNANA
22:00 3.6 0.1 78 0.0 1 8   101.81     LegendNANA
23:00 4.6 1.4 80 0.0 4 2   101.80     LegendNANA

Notes on Data Quality.

Legend

  • E = Estimated
  • M = Missing
  • NA = Not Available*
  • [empty] = Indicates an unobserved value
Date modified: